Weather History for PAAQ - December, 2012

Change the Weather History Date:

Tuesday, December 4, 2012

  Actual Average Record
Temperature  
Mean Temperature -4 °F -  
Max Temperature 1 °F 20 °F 46 °F (2011)
Min Temperature -9 °F 4 °F -21 °F (1967)
Degree Days  
Heating Degree Days 68    
Moisture  
Dew Point -9 °F    
Average Humidity 76    
Maximum Humidity 83    
Minimum Humidity 69    
Precipitation  
Precipitation 0.00 in - - ()
Sea Level Pressure  
Sea Level Pressure 29.50 in    
Wind  
Wind Speed 1 mph (NNE)    
Max Wind Speed 5 mph    
Max Gust Speed -    
Visibility 10 miles    
Events      
Averages and records for this station are not official NWS values.
T = Trace of Precipitation, MM = Missing Value Source: NWS Daily Summary

Daily Weather History Graph

Daily Weather History Graph

Search for Another Location

Airport or City:

Trip Planner

Search our weather history database for the weather conditions in past years. The results will help you decide how hot, cold, wet, or windy it might be!

Date:

Astronomy

Dec. 04, 2012 Rise Set
Actual Time 9:53 AM AKST 3:39 PM AKST
Civil Twilight 8:52 AM AKST 4:40 PM AKST
Nautical Twilight 7:53 AM AKST 5:39 PM AKST
Astronomical Twilight 7:00 AM AKST 6:33 PM AKST
Moon 10:57 PM AKST (12/4) 12:40 PM AKST (12/4)
Length of Visible Light 7h 47m
Length of Day
5h 46m
Waning Gibbous, 68% of the Moon is Illuminated
Dec 4
Waning Gibbous
Dec 6
Last Quarter
Dec 12
New
Dec 19
First Quarter
Dec 28
Full

Hourly Weather History & Observations

Time (AKST) Temp. Windchill Dew Point Humidity Pressure Visibility Wind Dir Wind Speed Gust Speed Precip Events Conditions
12:53 AM -0.0 °F -7.9 °F -7.1 °F 72% 29.52 in 10.0 mi NE 3.5 mph - N/A   Clear
1:53 AM 1.9 °F - -5.1 °F 72% 29.53 in 10.0 mi Calm Calm - N/A   Clear
2:53 AM 1.9 °F - -6.0 °F 69% 29.52 in 10.0 mi Calm Calm - N/A   Clear
3:53 AM -2.0 °F - -7.1 °F 79% 29.50 in 10.0 mi Calm Calm - N/A   Clear
4:53 AM -0.9 °F - -6.0 °F 79% 29.50 in 10.0 mi Calm Calm - N/A   Clear
5:53 AM -0.9 °F - -7.1 °F 75% 29.49 in 10.0 mi Calm Calm - N/A   Clear
6:53 AM -2.9 °F - -8.0 °F 79% 29.49 in 10.0 mi Calm Calm - N/A   Clear
7:53 AM -2.9 °F - -9.0 °F 75% 29.49 in 10.0 mi Calm Calm - N/A   Clear
8:53 AM -2.9 °F - -9.0 °F 75% 29.49 in 10.0 mi Calm Calm - N/A   Clear
9:53 AM -5.1 °F - -9.9 °F 80% 29.48 in 10.0 mi Calm Calm - N/A   Clear
10:53 AM -4.0 °F - -9.0 °F 79% 29.50 in 10.0 mi Calm Calm - N/A   Clear
11:53 AM -4.0 °F - -9.9 °F 76% 29.50 in 10.0 mi Calm Calm - N/A   Clear
12:53 PM -0.0 °F - -6.0 °F 76% 29.49 in 10.0 mi Calm Calm - N/A   Clear
1:53 PM 1.0 °F - -7.1 °F 69% 29.50 in 10.0 mi Calm Calm - N/A   Clear
2:53 PM -0.9 °F - -8.0 °F 72% 29.49 in 10.0 mi Calm Calm - N/A   Clear
3:53 PM -5.1 °F - -9.0 °F 83% 29.49 in 10.0 mi Calm Calm - N/A   Clear
4:53 PM -2.9 °F - -9.9 °F 72% 29.49 in 10.0 mi Calm Calm - N/A   Clear
5:53 PM -7.1 °F -15.9 °F -13.0 °F 75% 29.50 in 10.0 mi North 3.5 mph - N/A   Clear
6:53 PM -6.0 °F - -11.0 °F 79% 29.50 in 8.0 mi Calm Calm - N/A   Clear
7:53 PM -6.0 °F - -11.0 °F 79% 29.50 in 9.0 mi Calm Calm - N/A   Clear
8:53 PM -7.1 °F - -11.9 °F 79% 29.50 in 10.0 mi Calm Calm - N/A   Clear
9:53 PM -8.0 °F - -14.1 °F 75% 29.50 in 10.0 mi Calm Calm - N/A   Clear
10:53 PM -7.1 °F - -11.9 °F 79% 29.51 in 10.0 mi Calm Calm - N/A   Clear
11:53 PM -9.0 °F -20.4 °F -13.0 °F 83% 29.52 in 10.0 mi NNE 4.6 mph - N/A   Clear